Preview of NWS' New Version of Forecast
This preview is not operational and should not be used for support decisions.

Regional Weather Roundup (RWR)

Issued by National Weather Service (NWS)

                            
000
ASUS45 KBOU 171910
RWRCO 

WEATHER ROUNDUP FOR COLORADO
NATIONAL WEATHER SERVICE DENVER/BOULDER CO
1200 PM MST SUN FEB 17 2019

NOTE: "FAIR" INDICATES FEW OR NO CLOUDS BELOW 12000 FEET WITH NO
SIGNIFICANT WEATHER AND/OR OBSTRUCTIONS TO VISIBILITY.

COZ001>005-013-030-031-172000-
...NORTHWEST COLORADO...
  
CITY           SKY/WX    TMP DP  RH WIND       PRES   REMARKS
CRAIG          PTSUNNY   24  12  60 NE7       29.85S WCI  16          
HAYDEN         FAIR      28  11  48 SE5       29.84F WCI  23          
MEEKER         FAIR      28  10  46 NE5       29.82F WCI  23          
RANGELY        FAIR      19  10  66 CALM      29.87F                  
RABBIT EARS PA MOCLDY   N/A N/A N/A W8        29.69S                  
STEAMBOAT SPGS FAIR      17   8  67 CALM      29.82F                  
WALDEN         FAIR      16   3  57 S3        29.78S                  
$$

COZ006>008-011-172000-
...WEST CENTRAL VALLEYS...
  
CITY           SKY/WX    TMP DP  RH WIND       PRES   REMARKS
GRAND JUNCTION FAIR      34  15  46 SE5       29.85F WCI  30          
MONTROSE       FAIR      31  11  43 E13       29.86F WCI  21          
EAGLE          FAIR      33   9  36 CALM      29.86F                  
RIFLE          FAIR      27  13  55 CALM      29.86F                  
DELTA          FAIR      36  12  37 NE3       29.86F                  
NUCLA          PTSUNNY   32  14  47 E3        29.86F                  
$$

COZ017>023-064>068-172000-
...SOUTHWEST COLORADO...
  
CITY           SKY/WX    TMP DP  RH WIND       PRES   REMARKS
DURANGO        FAIR      24  10  55 E6        29.86F WCI  17          
CORTEZ         CLOUDY    32  14  47 SE12G18   29.84F WCI  23          
PAGOSA SPRINGS FAIR      26   8  46 S6        29.85S WCI  19          
TELLURIDE      FAIR      21   0  39 NE3       29.76F                  
WOLF CREEK PAS CLOUDY     5   1  85 S14G20    29.76F WCI -12          
$$

COZ009-010-012-014-032>034-037-058>063-172000-
...CENTRAL COLORADO...
  
CITY           SKY/WX    TMP DP  RH WIND       PRES   REMARKS
ASPEN          PTSUNNY   24   3  40 NW7       29.76F WCI  16          
BUENA VISTA    FAIR      24  -2  32 CALM      29.77F                  
COPPER MTN     CLOUDY    10   0  61 NW10      29.65S WCI  -3          
BERTHOUD PASS  CLOUDY    -2 -13  60 NW9G17    29.62S WCI -18          
COTTONWOOD PAS PTSUNNY   21  -8  27 SW9       29.73S WCI  11          
GUNNISON       FAIR       3  -7  63 E5        29.88F WCI  -6          
GRANBY         FAIR       9   1  72 CALM      29.79F                  
KREMMLING      CLOUDY    14   3  62 CALM      29.84F                  
LEADVILLE      CLOUDY    13   2  61 N6        29.70F WCI   4          
MONARCH PASS   CLOUDY     3   0  85 MISG      29.77F                  
SALIDA         FAIR      29   0  28 SW16      29.87F WCI  17          
SUNLIGHT       CLOUDY   N/A N/A N/A MISG      29.75S                  
WILKERSON PASS FAIR      12  -9  37 W5        29.71S WCI   4          
$$

COZ069>075-172000-
...SAN LUIS VALLEY/SANGRE DE CRISTO MOUNTAINS...
  
CITY           SKY/WX    TMP DP  RH WIND       PRES   REMARKS
ALAMOSA        FAIR      19   4  51 W6        29.84F WCI  11          
DEL NORTE      FAIR      13   1  58 E6        29.84S WCI   4          
LA VETA PASS   NOT AVBL                                               
SAGUACHE       FAIR      21   3  45 CALM      29.84F                  
$$

COZ035-036-038>040-172000-
...NORTHERN COLORADO FRONT RANGE...
  
CITY           SKY/WX    TMP DP  RH WIND       PRES   REMARKS
DENVER INTL AP FAIR      27  18  69 E17       29.82F WCI  14          
AURORA         MOSUNNY   31  17  55 E13       29.80F WCI  22          
FRONT RANGE AP MOSUNNY   30  21  69 E14       29.83  WCI  20          
ERIE MUNI ARPT FAIR      30  19  63 E10       29.90S WCI  21          
BOULDER MUN AP PTSUNNY   30  18  59 NE7       29.84R WCI  23          
CENTENNIAL     FAIR      32   4  30 VRB3      29.79F                  
BROOMFIELD     MOSUNNY   30  10  43 NE12      29.81S WCI  21          
FORT COLLINS   FAIR      33  13  43 SE8       29.85F WCI  26          
LONGMONT       FAIR      33  15  47 E5        29.87F WCI  28          
$$

COZ041-046-047-076>085-087-088-172000-
...PIKES PEAK/PALMER DIVIDE AND SOUTHERN FOOTHILLS...
  
CITY           SKY/WX    TMP DP  RH WIND       PRES   REMARKS
COLO. SPRINGS  FAIR      36  -6  16 SW9       29.78F                  
A. F. ACADEMY  FAIR      34 -13  13 W16G23    29.76F WCI  23          
SCHRIEVER AFB  NOT AVBL                                               
CHEYENNE MTN   PTSUNNY   30 -10  17 E5        29.72F WCI  25          
ELLICOTT       NOT AVBL                                               
FALCON         FAIR      33   3  28 E8        29.78F WCI  26          
FORT CARSON    FAIR      38  -8  13 S5        29.78F                  
LIMON          FAIR      32  11  41 VRB3      29.84F                  
MONUMENT HILL  FAIR      27   3  36 E6        29.79F WCI  20          
CANON CITY     FAIR      41  -2  16 SW13G21   29.79F                  
WALSENBURG     NOT AVBL                                               
TRINIDAD       FAIR      40 -12  10 SE12G20   29.81F                  
$$

COZ042>045-048>051-090-091-172000-
...NORTHEAST COLORADO...
  
CITY           SKY/WX    TMP DP  RH WIND       PRES   REMARKS
GREELEY ARPT   FAIR      31  14  49 E13G18    29.88S WCI  21          
AKRON          FAIR      23   9  55 N16G23    29.91R WCI  10          
BURLINGTON     CLOUDY    25  15  66 NE12      29.93F WCI  14          
WRAY           FAIR      28   5  37 N20G25    29.97F WCI  15          
YUMA           FAIR      25   5  42 N20       29.93F WCI  11          
STERLING       FAIR      27   9  46 N17G23    29.94F WCI  14          
HOLYOKE        FAIR      23   7  50 N14G23    29.98S WCI  11          
FORT MORGAN      N/A     29   9  44 NE7G17    29.91S WCI  21          
$$

COZ086-089-092>099-172000-
...SOUTHEAST COLORADO...
  
CITY           SKY/WX    TMP DP  RH WIND       PRES   REMARKS
PUEBLO         FAIR      44  -1  15 W18G25    29.81F                  
LA JUNTA       FAIR      42   6  22 SE12G17   29.87F                  
LAMAR          FAIR      38  20  48 E10       29.91F                  
SPRINGFIELD      N/A     40   5  23 VRB3      29.87F                  
$$